| time (UTC) | temp F | wind direction | speed MPH | gust MPH | rain 1hr in | rain 24hr in | rain mn in | humidity % | barometer mb |
| 20260902071526 | 68 | 211 | 3.0 | 6.0 | 0.00 | 0.02 | 0.00 | 91 | 1020.8 |
| 20260902070008 | 69 | 197 | 1.0 | 3.0 | 0.00 | 0.02 | 0.00 | 91 | 1021.0 |
| 20260902064508 | 69 | 196 | 2.0 | 4.0 | 0.00 | 0.02 | 0.00 | 91 | 1021.1 |
| 20260902063009 | 69 | 193 | 2.0 | 3.0 | 0.00 | 0.02 | 0.00 | 91 | 1020.9 |
| 20260902061509 | 69 | 193 | 1.0 | 2.0 | 0.00 | 0.02 | 0.00 | 91 | 1021.0 |
| 20260902060013 | 69 | 193 | 0.0 | 3.0 | 0.00 | 0.02 | 0.00 | 91 | 1021.2 |
| 20260902054504 | 69 | 193 | 2.0 | 4.0 | 0.00 | 0.02 | 0.00 | 91 | 1021.1 |
| 20260902053002 | 70 | 194 | 1.0 | 4.0 | 0.00 | 0.02 | 0.00 | 90 | 1021.0 |
| 20260902051501 | 70 | 185 | 1.0 | 6.0 | 0.00 | 0.02 | 0.00 | 90 | 1020.9 |
| 20260902050104 | 70 | 232 | 2.0 | 5.0 | 0.00 | 0.02 | 0.00 | 90 | 1020.9 |
| 20260902044558 | 70 | 244 | 3.0 | 7.0 | 0.00 | 0.02 | 0.00 | 90 | 1020.9 |
| 20260902043057 | 71 | 221 | 2.0 | 5.0 | 0.00 | 0.02 | 0.00 | 90 | 1020.8 |
| 20260902041553 | 72 | 244 | 1.0 | 3.0 | 0.00 | 0.02 | 0.00 | 89 | 1020.7 |
| 20260902040052 | 72 | 205 | 1.0 | 3.0 | 0.00 | 0.02 | 0.00 | 89 | 1020.5 |
| 20260902034551 | 72 | 222 | 3.0 | 6.0 | 0.00 | 0.02 | 0.02 | 89 | 1020.6 |
| 20260902033053 | 72 | 212 | 2.0 | 5.0 | 0.00 | 0.02 | 0.02 | 88 | 1020.4 |
| 20260902031550 | 73 | 209 | 2.0 | 3.0 | 0.00 | 0.02 | 0.02 | 88 | 1020.3 |
| 20260902030049 | 73 | 209 | 0.0 | 2.0 | 0.00 | 0.02 | 0.02 | 88 | 1020.1 |
| 20260902024550 | 74 | 209 | 0.0 | 2.0 | 0.00 | 0.02 | 0.02 | 87 | 1019.9 |
| 20260902023049 | 74 | 209 | 0.0 | 3.0 | 0.00 | 0.02 | 0.02 | 87 | 1020.1 |
| 20260902021553 | 74 | 209 | 1.0 | 2.0 | 0.00 | 0.02 | 0.02 | 87 | 1020.1 |
| 20260902020048 | 75 | 209 | 1.0 | 3.0 | 0.00 | 0.02 | 0.02 | 87 | 1020.0 |
| 20260902014549 | 75 | 209 | 0.0 | 1.0 | 0.00 | 0.02 | 0.02 | 87 | 1019.9 |
| 20260902013047 | 75 | 209 | 0.0 | 2.0 | 0.00 | 0.02 | 0.02 | 87 | 1019.7 |
| 20260902011555 | 75 | 208 | 0.0 | 3.0 | 0.00 | 0.02 | 0.02 | 87 | 1019.5 |
| 20260902010109 | 75 | 239 | 3.0 | 6.0 | 0.00 | 0.02 | 0.02 | 87 | 1019.5 |
| 20260902004545 | 76 | 205 | 3.0 | 5.0 | 0.01 | 0.02 | 0.02 | 86 | 1019.4 |
| 20260902003046 | 76 | 251 | 1.0 | 4.0 | 0.01 | 0.02 | 0.02 | 85 | 1019.0 |
| 20260902001545 | 77 | 282 | 1.0 | 2.0 | 0.01 | 0.02 | 0.02 | 83 | 1018.8 |
| 20260902000049 | 78 | 282 | 0.0 | 2.0 | 0.01 | 0.02 | 0.02 | 80 | 1018.4 |
| 20260901234544 | 79 | 282 | 0.0 | 2.0 | 0.00 | 0.01 | 0.01 | 80 | 1018.6 |
| 20260901233056 | 80 | 287 | 0.0 | 3.0 | 0.00 | 0.01 | 0.01 | 78 | 1018.8 |
| 20260901231552 | 83 | 350 | 1.0 | 3.0 | 0.00 | 0.01 | 0.01 | 73 | 1018.7 |
| 20260901230043 | 84 | 350 | 0.0 | 2.0 | 0.00 | 0.01 | 0.01 | 71 | 1018.5 |
| 20260901224545 | 84 | 350 | 0.0 | 1.0 | 0.00 | 0.02 | 0.01 | 70 | 1018.5 |
| 20260901223050 | 84 | 350 | 0.0 | 2.0 | 0.00 | 0.02 | 0.01 | 71 | 1018.3 |
| 20260901221542 | 84 | 350 | 0.0 | 1.0 | 0.00 | 0.02 | 0.01 | 70 | 1018.3 |
| 20260901220043 | 84 | 351 | 0.0 | 3.0 | 0.00 | 0.02 | 0.01 | 71 | 1018.6 |
| 20260901214541 | 83 | 44 | 1.0 | 4.0 | 0.00 | 0.02 | 0.01 | 71 | 1018.5 |
| 20260901213043 | 84 | 51 | 1.0 | 4.0 | 0.00 | 0.02 | 0.01 | 71 | 1018.4 |
| 20260901211540 | 84 | 52 | 1.0 | 3.0 | 0.00 | 0.02 | 0.01 | 71 | 1018.3 |
| 20260901210041 | 84 | 331 | 0.0 | 2.0 | 0.00 | 0.02 | 0.01 | 71 | 1018.0 |
| 20260901204538 | 84 | 22 | 0.0 | 2.0 | 0.00 | 0.02 | 0.01 | 73 | 1018.1 |
| 20260901203033 | 83 | 46 | 0.0 | 3.0 | 0.00 | 0.02 | 0.01 | 75 | 1018.5 |
| 20260901201530 | 82 | 336 | 0.0 | 2.0 | 0.00 | 0.02 | 0.01 | 76 | 1018.5 |
| 20260901200041 | 82 | 316 | 1.0 | 5.0 | 0.00 | 0.02 | 0.01 | 76 | 1018.6 |
| 20260901194530 | 81 | 250 | 0.0 | 4.0 | 0.00 | 0.02 | 0.01 | 78 | 1018.7 |
| 20260901193025 | 80 | 211 | 1.0 | 7.0 | 0.00 | 0.02 | 0.01 | 78 | 1018.7 |
| 20260901191531 | 81 | 253 | 0.0 | 7.0 | 0.00 | 0.02 | 0.01 | 78 | 1018.6 |
| 20260901190022 | 80 | 281 | 2.0 | 8.0 | 0.00 | 0.02 | 0.01 | 80 | 1018.7 |
| 20260901184521 | 79 | 254 | 0.0 | 5.0 | 0.00 | 0.02 | 0.01 | 81 | 1018.7 |
| 20260901183019 | 78 | 246 | 0.0 | 4.0 | 0.00 | 0.02 | 0.01 | 87 | 1018.7 |
| 20260901181514 | 77 | 236 | 1.0 | 7.0 | 0.00 | 0.02 | 0.01 | 90 | 1018.5 |
| 20260901180024 | 76 | 248 | 0.0 | 2.0 | 0.00 | 0.02 | 0.01 | 92 | 1018.5 |
| 20260901174508 | 74 | 290 | 0.0 | 3.0 | 0.00 | 0.02 | 0.01 | 92 | 1018.5 |
| 20260901173004 | 73 | 24 | 0.0 | 2.0 | 0.00 | 0.02 | 0.01 | 93 | 1018.7 |
| 20260901171502 | 73 | 26 | 0.0 | 4.0 | 0.00 | 0.02 | 0.01 | 92 | 1018.6 |
| 20260901170156 | 72 | 68 | 0.0 | 2.0 | 0.00 | 0.02 | 0.01 | 92 | 1018.6 |
| 20260901164552 | 72 | 67 | 1.0 | 2.0 | 0.00 | 0.02 | 0.01 | 92 | 1018.8 |
| 20260901163051 | 72 | 68 | 2.0 | 3.0 | 0.00 | 0.02 | 0.01 | 92 | 1018.8 |
| 20260901161605 | 72 | 67 | 2.0 | 4.0 | 0.00 | 0.02 | 0.01 | 92 | 1018.9 |
| 20260901160049 | 72 | 71 | 1.0 | 5.0 | 0.00 | 0.02 | 0.01 | 92 | 1018.9 |
| 20260901154552 | 72 | 91 | 3.0 | 4.0 | 0.00 | 0.02 | 0.01 | 92 | 1019.1 |
| 20260901153100 | 72 | 96 | 2.0 | 6.0 | 0.00 | 0.02 | 0.01 | 92 | 1019.1 |
| 20260901151544 | 71 | 104 | 1.0 | 3.0 | 0.00 | 0.02 | 0.01 | 92 | 1019.1 |
| 20260901150042 | 71 | 105 | 1.0 | 2.0 | 0.00 | 0.02 | 0.01 | 92 | 1019.0 |
| 20260901144547 | 71 | 137 | 0.0 | 2.0 | 0.00 | 0.02 | 0.01 | 92 | 1018.9 |
| 20260901143040 | 70 | 137 | 0.0 | 4.0 | 0.00 | 0.02 | 0.01 | 92 | 1018.9 |
| 20260901141541 | 70 | 110 | 1.0 | 3.0 | 0.00 | 0.02 | 0.01 | 92 | 1019.0 |
| 20260901140036 | 70 | 36 | 1.0 | 3.0 | 0.01 | 0.02 | 0.01 | 92 | 1019.2 |
| 20260901134535 | 70 | 46 | 0.0 | 5.0 | 0.01 | 0.02 | 0.01 | 92 | 1019.1 |
| 20260901133039 | 70 | 227 | 1.0 | 6.0 | 0.01 | 0.02 | 0.01 | 92 | 1019.2 |
| 20260901131540 | 70 | 217 | 2.0 | 5.0 | 0.01 | 0.02 | 0.01 | 92 | 1019.3 |
| 20260901130030 | 69 | 157 | 2.0 | 4.0 | 0.00 | 0.01 | 0.00 | 92 | 1019.5 |
| 20260901124531 | 69 | 173 | 1.0 | 7.0 | 0.00 | 0.01 | 0.00 | 92 | 1019.5 |
| 20260901123038 | 69 | 133 | 2.0 | 4.0 | 0.00 | 0.01 | 0.00 | 92 | 1019.8 |
| 20260901121531 | 69 | 254 | 2.0 | 5.0 | 0.00 | 0.01 | 0.00 | 92 | 1020.4 |
| 20260901120026 | 68 | 78 | 1.0 | 3.0 | 0.00 | 0.01 | 0.00 | 92 | 1019.8 |
| 20260901114526 | 68 | 78 | 3.0 | 5.0 | 0.00 | 0.01 | 0.00 | 92 | 1019.7 |
| 20260901113024 | 68 | 45 | 2.0 | 5.0 | 0.00 | 0.01 | 0.00 | 92 | 1019.8 |
| 20260901111524 | 68 | 342 | 2.0 | 4.0 | 0.00 | 0.01 | 0.00 | 92 | 1019.1 |
| 20260901110023 | 68 | 251 | 1.0 | 8.0 | 0.00 | 0.01 | 0.00 | 92 | 1019.0 |
| 20260901104527 | 67 | 105 | 1.0 | 4.0 | 0.00 | 0.01 | 0.00 | 92 | 1019.2 |
| 20260901103020 | 67 | 84 | 0.0 | 3.0 | 0.00 | 0.01 | 0.00 | 92 | 1019.5 |
| 20260901101520 | 67 | 84 | 1.0 | 3.0 | 0.00 | 0.01 | 0.00 | 91 | 1019.1 |
| 20260901100025 | 67 | 84 | 0.0 | 2.0 | 0.00 | 0.01 | 0.00 | 91 | 1019.2 |
| 20260901094518 | 67 | 84 | 1.0 | 4.0 | 0.00 | 0.01 | 0.00 | 91 | 1019.2 |
| 20260901093016 | 67 | 142 | 1.0 | 2.0 | 0.00 | 0.01 | 0.00 | 91 | 1019.5 |
| 20260901091516 | 67 | 142 | 2.0 | 3.0 | 0.00 | 0.01 | 0.00 | 91 | 1019.5 |
| 20260901090025 | 67 | 142 | 0.0 | 2.0 | 0.00 | 0.01 | 0.00 | 91 | 1019.5 |
| 20260901084513 | 67 | 143 | 0.0 | 2.0 | 0.00 | 0.01 | 0.00 | 91 | 1019.9 |
| 20260901083027 | 67 | 176 | 1.0 | 2.0 | 0.00 | 0.01 | 0.00 | 91 | 1020.0 |
| 20260901081515 | 67 | 176 | 0.0 | 1.0 | 0.00 | 0.01 | 0.00 | 91 | 1020.1 |
| 20260901080011 | 67 | 176 | 0.0 | 1.0 | 0.00 | 0.01 | 0.00 | 91 | 1020.1 |
| 20260901074518 | 67 | 174 | 0.0 | 1.0 | 0.00 | 0.01 | 0.00 | 91 | 1020.3 |
| 20260901073025 | 67 | 172 | 0.0 | 1.0 | 0.00 | 0.01 | 0.00 | 91 | 1020.2 |